Regional Weather Roundup
Issued by NWS Glasgow, MT

Home | Current Version | Previous Version | Text Only | Print | Product List | Glossary On
Versions: 1 2 3 4 5 6 7 8 9 10 11 12 13 14 15 16 17 18 19 20 21 22 23 24 25 26 27 28 29 30 31 32 33 34 35 36 37 38 39 40 41 42 43 44 45 46 47 48 49 50
000
ASUS45 KGGW 281115
RWRGGW
HOURLY WEATHER ROUNDUP FOR NORTHEAST MONTANA
NATIONAL WEATHER SERVICE GLASGOW MONTANA
500 AM MDT TUE APR 28 2015

NOTE: "FAIR" INDICATES FEW OR NO CLOUDS BELOW 12,000 FEET WITH NO
SIGNIFICANT WEATHER AND/OR OBSTRUCTIONS TO VISISBILITY.

NORTHEAST MONTANA


CITY           SKY/WX    TMP DP  RH WIND       PRES   REMARKS
GLASGOW        CLEAR     37  33  85 E9        30.26S
PLENTYWOOD       N/A    N/A N/A N/A N3          N/A
WOLF POINT     PTCLDY    33  30  88 E3        30.30R
JORDAN           N/A     41  34  76 CALM      30.27S
WINNETT          N/A     39  33  79 E2          N/A
SIDNEY         CLEAR     34  30  86 S6        30.32R
GLENDIVE       CLEAR     32  30  93 S6        30.33R
MALTA            N/A     41  35  79 NE12G21     N/A
SCOBEY           N/A     39  30  70 CALM      30.23
OPHEIM           N/A     37  32  81 CALM      30.15F

FORT PECK REPORTS


CITY           SKY/WX    TMP DP  RH WIND       PRES   REMARKS
FORT PECK        N/A     44  37  76 SE12        N/A
THE PINES        N/A     42  35  76 S7          N/A

SOUTHEAST MONTANA


CITY           SKY/WX    TMP DP  RH WIND       PRES   REMARKS
BILLINGS       CLEAR     40  34  79 SW9       30.26S
MILES CITY     CLEAR     34  32  92 SE9       30.30S
BAKER          CLEAR     28  26  92 CALM      30.33S
LIVINGSTON     CLEAR     33  28  81 NW7       30.26F

CENTRAL MONTANA


CITY           SKY/WX    TMP DP  RH WIND       PRES   REMARKS
HAVRE          CLEAR     37  29  72 N3        30.18R
LEWISTOWN      CLEAR     35  29  78 SE7       30.23S
GREAT FALLS    CLEAR     38  30  73 S10       30.18S
CUT BANK       CLEAR     36  28  73 CALM      30.16F
HELENA         CLEAR     39  30  70 CALM      30.25R
BUTTE          CLEAR     30  26  85 CALM      30.28S
BOZEMAN        CLEAR     34  29  82 S7        30.27F

WESTERN MONTANA


CITY           SKY/WX    TMP DP  RH WIND       PRES   REMARKS
MISSOULA       PTCLDY    38  32  79 CALM      30.25S
KALISPELL      NOT AVBL

NORTH DAKOTA


CITY           SKY/WX    TMP DP  RH WIND       PRES   REMARKS
WILLISTON      CLEAR     36  33  89 SW3       30.30S
DICKINSON      CLEAR     33  30  88 W6        30.30S
MINOT          CLEAR     37  34  89 SW9       30.27S
BISMARCK       CLEAR     31  30  96 CALM      30.33R

SOUTHERN SASKATCHEWAN


CITY           SKY/WX    TMP DP  RH WIND       PRES   REMARKS
REGINA         PTCLDY    37  32  81 S7        30.22S
MOOSE JAW      PTCLDY    48  36  61 SW16      30.20S
ESTEVAN        MOCLDY    34  34 100 SW7       30.27R
SWIFT CURRENT  CLEAR     41  32  70 S16       30.15S



USA.gov is the U.S. government's official web portal to all federal, state and local government web resources and services.